Skip Page Navigation
NASA JPL Caltech
NASA Logo - Jet Propulsion Laboratory + View the NASA Portal
+ Near-Earth Object (NEO) Program
Search JPL
JPL Home Earth Solar System Stars & Galaxies Technology
JPL Solar System Dynamics
BODIES ORBITS EPHEMERIDES TOOLS PHYSICAL DATA DISCOVERY FAQ SITE MAP
JPL Small-Body Database Browser
Search: [ help ]  
(2013 DS9)
Classification: Apollo [NEO]          SPK-ID: 3627427
Ephemeris | Orbit Diagram | Orbital Elements | Physical Parameters | Close-Approach Data ]

[ hide orbit diagram ]
Orbit Diagram
Note: Make sure you have Java enabled on your browser to see the applet. This applet is provided as a 3D orbit visualization tool. The applet was implemented using 2-body methods, and hence should not be used for determining accurate long-term trajectories (over several years or decades) or planetary encounter circumstances. For accurate long-term ephemerides, please instead use our Horizons system.
Orbit Viewer

Additional Notes: the orbits shown in the applet are color coded. The planets are white lines, and the asteroid/comet is a blue line. The bright white line indicates the portion of the orbit that is above the ecliptic plane, and the darker portion is below the ecliptic plane. Likewise for the asteroid/comet orbit, the light blue indicates the portion above the ecliptic plane, and the dark blue the portion below the ecliptic plane.

Orbit Viewer applet originally written and kindly provided by Osamu Ajiki (AstroArts), and further modified by Ron Baalke (JPL).


Orbital Elements at Epoch 2456343.5 (2013-Feb-20.0) TDB
Reference: JPL 1 (heliocentric ecliptic J2000)
 Element Value Uncertainty (1-sigma)   Units 
e .514247890006995 0.0017529  
a 2.065957921855486 0.0075406 AU
q 1.003543419698066 4.2985e-05 AU
i 1.888402920950938 0.0051204 deg
node 141.4808815946337 0.0049712 deg
peri 25.49217688996342 0.014245 deg
M 355.5312666644442 0.024235 deg
tp 2456356.963642567052
(2013-Mar-05.46364257)
0.0045657 JED
period 1084.627557785525
2.97
5.9383
0.01626
d
yr
n .331911168415275 0.0018172 deg/d
Q 3.128372424012905 0.011418 AU
  Orbit Determination Parameters
   # obs. used (total)      27  
   data-arc span      2 days  
   first obs. used      2013-02-19  
   last obs. used      2013-02-21  
   planetary ephem.      DE405  
   SB-pert. ephem.      SB405-CPV-2  
   condition code      8  
   fit RMS      .50204  
   data source      ORB  
   producer      Otto Matic  
   solution date      2013-Feb-21 03:50:04  

Additional Information
 Earth MOID = .0176471 AU 
 T_jup = 3.599 
[ show covariance matrix ]

Ephemeris | Orbit Diagram | Orbital Elements | Physical Parameters | Close-Approach Data ]

Physical Parameter Table
Parameter Symbol Value Units Sigma Reference Notes
absolute magnitude H 26.285 mag .36347 1 autocmod 2.5b

[ show close-approach data ]
Ephemeris | Orbit Diagram | Orbital Elements | Physical Parameters | Close-Approach Data ]
ABOUT SSD CREDITS/AWARDS PRIVACY/COPYRIGHT GLOSSARY LINKS
FirstGov 2013-May-25 08:18 UT
(server date/time)  
NASA Home Page
Site Manager:   Donald K. Yeomans
Webmaster  Alan B. Chamberlin